BREEZE-M R/B, 42750

Orbit data source: Space-Track

BREEZE-M R/B, 42750 is space debris in HEO originally from a launch on Thu, 08 Jun 2017 UTC launched from the Tyuratam Missile And Space Complex (TTMTR). Debris objects in space refer to the collection of defunct objects orbiting the Earth. Examples of debris include non-operational satellites, rocket bodies, and fragments generated from explosions, collisions, or faulty payload assembly.

Loading next visibility...
BREEZE-M R/B details
Identifier
42750, 2017-032B
Orbit
HEO
Last TLE update17 hours ago
Origin
Flag of CISKhrunichev (CIS)
ManufacturerKhrunichev
MissionSpacecraft
Bus & MotorBRIZ, Unknown motor
Mass~1,600 kg wet, 1,600 kg dry
Launch date (UTC)
2017-06-08 (8 years ago)
Launch vehicleUnknown
Launch site
Tyuratam Missile And Space Complex (TTMTR)
Object type
Payload
Rocket body
Debris
Shape & HBRCyl, 4 m
Radar Cross Section14.451 m², Large (>1 m²)

Expand to show TLE details & history

TLE from 17 hours ago
0 BREEZE-M R/B
1 42750U 17032B   24360.86852542 -.00000029  00000-0  00000-0 0  9998
2 42750  31.2893 342.3481 6662692  11.9541 358.1845  2.26361372 62485
Epoch: 2024-12-25T20:50Z
Definitive object data (Epoch: 2024-12-25T20:50:40.596Z)
Latitude0.00068°
Longitude-65.18611°
Altitude1,894.815 km
Speed8.949 km/s
True Right ascension22h 49m 21s
True Declination0° 00' 02"
Sunlit
Object was in daylight at TLE epoch
Visualization TLE readout
Latitude-11.79081°
Longitude134.71295°
Altitude33,010.803 km
Speed1.993 km/s
Apparent Right ascension11h 58m 53s
Apparent Declination-19° 38' 47"
Sunlit
Object is in daylight
Visualization observer readout
Local Sidereal Time13:19:43
Azimuth201.524° SSW
Elevation27.524°
Doppler factor1
Orbital elements
Apogee altitude34,453 km
Perigee altitude1,799.778 km
Semi-major axis24,504.526 km
Eccentricity0.6662692
Inclination31.2893°
RAAN342.3481°
Arg. of periapsis11.9541°
True anomaly347.91651°
Mean anomaly358.1845°
Eccentric anomaly354.57615°
Mean motion0.56581 °/min
BSTARUnknown
Orbital period636.25 mins
Loading maneuver chart data...
Loading historical data...
Loading historical data...
Loading historical data...
Loading historical data...
Loading historical data...
Loading historical data...
Loading historical data...
Other satellites on launch #32 in the year 2017 (2017-06-08 UTC)

BREEZE-M R/B Visibility forecast

Observer location: undefined°, undefined

Span
Click to sort rows by Start time (UTC) header in descending order
Start Az.
Max El. time (UTC)
Max El. Az.
Max El.
End time (UTC)
End Az.
127 mins2024-12-26 13:57:58.089Z201.517° SSW2024-12-26 13:57:58.089Z201.517° SSW24.793°2024-12-26 16:04:58.089Z203.946° SW
512 mins2024-12-27 04:53:58.089Z251.763° W2024-12-27 05:07:58.089Z174.462° S43.423°2024-12-27 13:25:58.089Z162.371° S
|